Regional Weather Roundup
Issued by NWS Cleveland, OH

Home | Current Version | Previous Version | Graphics & Text | Print | Product List | Glossary On
Versions: 1 2 3 4 5 6 7 8 9 10 11 12 13 14 15 16 17 18 19 20 21 22 23 24 25 26 27 28 29 30 31 32 33 34 35 36 37 38 39 40 41 42 43 44 45 46 47 48 49 50
720
ASUS41 KCLE 291712
RWRCLE
OHIO REGIONAL WEATHER ROUNDUP
NATIONAL WEATHER SERVICE WILMINGTON, OH
100 PM EDT FRI JUL 29 2016

NOTE: "FAIR" INDICATES FEW OR NO CLOUDS BELOW 12,000 FEET WITH NO
SIGNIFICANT WEATHER AND/OR OBSTRUCTIONS TO VISIBILITY.

OHZ001>008-015>018-024>027-034-035-043-044-291800-
   NORTHWEST OHIO

CITY           SKY/WX    TMP DP  RH WIND       PRES   REMARKS
DEFIANCE       FAIR      86  66  51 MISG      29.94F
FINDLAY        FAIR      86  64  47 SW5       29.93F
TOLEDO EXPRESS FAIR      83  67  58 VRB3      29.94S
TOLEDO EXEC    FAIR      86  68  54 VRB5      29.95S
LIMA           PTSUNNY   85  64  49 CALM      29.94S
$$

OHZ009>014-019>023-028>033-038-089-291800-
   NORTHEAST OHIO

CITY           SKY/WX    TMP DP  RH WIND       PRES   REMARKS
CLE-HOPKINS    PTSUNNY   85  66  53 VRB3      29.95F
CLE-LAKEFRONT  FAIR      82  71  69 NW8       29.92F
CUY CO. ARPT   PTSUNNY   86  72  62 W6        29.94F HX  92
LORAIN-ELYRIA  FAIR      84  66  54 VRB3      29.95S
ASHTABULA      FAIR      82  70  66 VRB3      29.95F
AKRON-CANTON   FAIR      81  63  54 CALM      29.96F
WOOSTER        FAIR      82  67  60 CALM      29.97S
MANSFIELD      FAIR      86  63  45 SW6       29.96F
YOUNGSTOWN     PTSUNNY   79  66  64 SE3       29.96F
$$

OHZ042-051>053-060>062-070>072-077>081-291800-
  SOUTHWEST OHIO

CITY           SKY/WX    TMP DP  RH WIND       PRES   REMARKS
CINC-COVINGTON PTSUNNY   82  71  69 CALM      29.97S
CINC-LUNKEN    PTSUNNY   82  74  76 S8        29.95S
HAMILTON       FAIR      81  71  71 SW5       29.95S
DAYTON         PTSUNNY   85  67  54 SW10      29.95F
WRIGHT-PAT AFB PTSUNNY   84  71  66 S8        29.94S
DAYTON GENERAL FAIR      84  69  60 SW10      29.95S
WILMINGTON     FAIR      79  72  79 S9        29.96F
$$

OHZ036-037-039>041-045>050-054>059-063>069-073>076-082>088-291800-
  CENTRAL AND SOUTHEAST OHIO

CITY           SKY/WX    TMP DP  RH WIND       PRES   REMARKS
COLUMBUS       PTSUNNY   79  71  76 SW8       29.96S
OSU AIRPORT    FAIR      79  72  79 VRB7      29.96F
BOLTON FIELD     N/A     79  73  83 SE6         N/A
RICKENBACK AFB FAIR      78  71  79 CALM      29.95F
NEWARK         FAIR      80  70  71 SW6       29.96F
MARION         PTSUNNY   84  65  52 SE5       29.95F
LANCASTER      FAIR      81  71  71 VRB3      29.97S
ZANESVILLE     FAIR      81  68  64 VRB5      29.98R
NEW PHILLY     FAIR      83  66  56 CALM      29.96F
$$




USA.gov is the U.S. government's official web portal to all federal, state and local government web resources and services.